EW1335 Weather Reports


time (UTC)temp
C
wind
direction
speed
KPH
gust
KPH
rain 1hr
cm
rain 24hr
cm
rain mn
cm
humidity
%
barometer
mb
20260510022436 12 205 11.3 12.9 0.00 0.00 0.00 82 1005.2
20260510021935 11 208 1.6 11.3 0.00 0.00 0.00 82 1005.1
20260510021505 11 112 4.8 11.3 0.00 0.00 0.00 83 1005.2
20260510021005 11 160 0.0 12.9 0.00 0.00 0.00 83 1005.1
20260510020505 11 179 3.2 12.9 0.00 0.00 0.00 83 1005.1
20260510020006 11 146 0.0 12.9 0.00 0.00 0.00 83 1004.9
20260510015435 11 149 0.0 12.9 0.00 0.00 0.00 83 1004.8
20260510014937 11 198 1.6 14.5 0.00 0.00 0.00 83 1004.7
20260510014005 11 224 0.0 8.0 0.00 0.00 0.00 82 1005.5
20260510013005 11 44 3.2 14.5 0.00 0.00 0.00 82 1005.5
20260510012435 11 169 6.4 11.3 0.00 0.00 0.00 82 1005.7
20260510012005 11 68 1.6 8.0 0.00 0.00 0.00 82 1005.7
20260510011005 11 226 0.0 9.7 0.00 0.00 0.00 81 1005.5
20260510010505 12 214 1.6 11.3 0.00 0.00 0.00 81 1005.6
20260510005505 12 179 4.8 9.7 0.00 0.00 0.00 80 1005.4
20260510005005 12 231 0.0 8.0 0.00 0.00 0.00 80 1005.4
20260510004005 12 65 3.2 6.4 0.00 0.00 0.00 79 1005.3
20260510003505 12 74 0.0 8.0 0.00 0.00 0.00 79 1005.3
20260510003005 12 244 3.2 9.7 0.00 0.00 0.00 78 1005.3
20260510002504 12 6 1.6 9.7 0.00 0.00 0.00 78 1005.4
20260510002005 12 59 1.6 6.4 0.00 0.00 0.00 78 1005.5
20260510001504 12 70 0.0 1.6 0.00 0.00 0.00 77 1005.5
20260510001004 12 70 0.0 4.8 0.00 0.00 0.00 76 1005.6
20260510000506 13 70 0.0 4.8 0.00 0.00 0.00 75 1005.6
20260510000005 13 189 3.2 4.8 0.00 0.00 0.00 75 1005.5
20260509235504 13 201 4.8 4.8 0.00 0.00 0.00 74 1005.2
20260509234504 13 62 3.2 16.1 0.00 0.00 0.00 72 1005.2
20260509234004 14 150 0.0 11.3 0.00 0.00 0.00 71 1005.5
20260509233504 14 75 0.0 9.7 0.00 0.00 0.00 71 1005.5
20260509232504 13 203 3.2 11.3 0.00 0.00 0.00 71 1005.3
20260509231504 14 77 1.6 11.3 0.00 0.00 0.00 70 1005.4
20260509231004 15 279 1.6 11.3 0.00 0.00 0.00 70 1005.5
20260509230504 15 288 3.2 6.4 0.00 0.00 0.00 68 1005.6
20260509230004 15 184 0.0 11.3 0.00 0.00 0.00 67 1005.5
20260509225504 16 90 4.8 14.5 0.00 0.00 0.00 65 1005.3
20260509225004 16 98 3.2 14.5 0.00 0.00 0.00 65 1005.2
20260509224504 15 212 4.8 12.9 0.00 0.00 0.00 66 1005.2
20260509223503 15 203 0.0 14.5 0.00 0.00 0.00 68 1005.2
20260509223004 15 86 0.0 14.5 0.00 0.00 0.00 67 1005.3
20260509222503 15 16 3.2 9.7 0.00 0.00 0.00 66 1005.3
20260509222004 15 118 0.0 11.3 0.00 0.00 0.00 67 1005.2
20260509221503 15 211 3.2 11.3 0.00 0.00 0.00 66 1005.1
20260509221003 15 73 6.4 17.7 0.00 0.00 0.00 67 1005.1
20260509220503 16 181 1.6 17.7 0.00 0.00 0.00 66 1005.2
20260509220003 16 192 3.2 17.7 0.00 0.00 0.00 65 1005.4
20260509215003 16 304 1.6 9.7 0.00 0.00 0.00 65 1005.7
20260509214503 15 131 1.6 12.9 0.00 0.00 0.00 66 1005.6
20260509214003 16 76 6.4 12.9 0.00 0.00 0.00 65 1005.6
20260509213503 16 175 0.0 14.5 0.00 0.00 0.00 65 1005.6
20260509213003 16 11 1.6 16.1 0.00 0.00 0.00 64 1005.6
20260509212502 16 229 1.6 16.1 0.00 0.00 0.00 65 1005.6
20260509212002 17 206 3.2 16.1 0.00 0.00 0.00 62 1005.5
20260509211502 16 241 12.9 16.1 0.00 0.00 0.00 64 1005.4
20260509211002 16 205 1.6 11.3 0.00 0.00 0.00 64 1005.7
20260509210502 16 212 3.2 19.3 0.00 0.00 0.00 64 1005.6
20260509210002 16 73 3.2 22.5 0.00 0.00 0.00 63 1005.6
20260509205502 17 161 6.4 22.5 0.00 0.00 0.00 62 1005.6
20260509205002 17 87 4.8 17.7 0.00 0.00 0.00 63 1005.5
20260509204502 17 219 8.0 14.5 0.00 0.00 0.00 61 1005.6
20260509203502 17 118 4.8 19.3 0.00 0.00 0.00 62 1005.6
20260509203002 17 188 9.7 16.1 0.00 0.00 0.00 61 1005.8
20260509202002 17 60 4.8 20.9 0.00 0.00 0.00 59 1005.8
20260509201502 17 33 4.8 22.5 0.00 0.00 0.00 59 1005.8
20260509200502 17 307 4.8 16.1 0.00 0.00 0.00 58 1005.6
20260509200002 17 110 3.2 16.1 0.00 0.00 0.00 57 1005.5
20260509195502 17 270 4.8 25.7 0.00 0.00 0.00 58 1005.7
20260509195002 17 127 11.3 25.7 0.00 0.00 0.00 57 1005.7
20260509194502 17 147 3.2 19.3 0.00 0.00 0.00 57 1005.9
20260509193501 18 51 3.2 19.3 0.00 0.00 0.00 53 1006.0
20260509193002 19 232 9.7 19.3 0.00 0.00 0.00 51 1006.1
20260509192001 18 133 3.2 20.9 0.00 0.00 0.00 51 1005.9
20260509191001 18 217 1.6 14.5 0.00 0.00 0.00 50 1005.9
20260509190501 18 325 1.6 9.7 0.00 0.00 0.00 48 1006.1
20260509190001 19 354 8.0 12.9 0.00 0.00 0.00 47 1006.0
20260509185501 19 209 3.2 12.9 0.00 0.00 0.00 47 1006.1
20260509185001 18 237 1.6 12.9 0.00 0.00 0.00 46 1006.2
20260509184001 18 151 3.2 17.7 0.00 0.00 0.00 47 1006.0
20260509183501 18 92 12.9 17.7 0.00 0.00 0.00 48 1006.1
20260509183002 18 61 6.4 16.1 0.00 0.00 0.00 47 1006.2
20260509182501 19 203 6.4 11.3 0.00 0.00 0.00 46 1006.2
20260509182001 18 145 4.8 12.9 0.00 0.00 0.00 45 1006.3
20260509181501 18 175 3.2 12.9 0.00 0.00 0.00 46 1006.2
20260509181001 18 12 4.8 14.5 0.00 0.00 0.00 45 1006.2
20260509180502 18 108 9.7 14.5 0.00 0.00 0.00 49 1006.3
20260509174500 17 221 17.7 17.7 0.00 0.00 0.00 51 1006.5
20260509174000 17 139 0.0 16.1 0.00 0.00 0.00 51 1006.5
20260509173500 17 315 4.8 16.1 0.00 0.00 0.00 51 1006.8
20260509173000 17 205 8.0 16.1 0.00 0.00 0.00 51 1006.8
20260509172500 17 184 1.6 16.1 0.00 0.00 0.00 51 1006.7
20260509171500 16 86 4.8 16.1 0.00 0.00 0.00 55 1006.8
20260509170500 17 44 4.8 17.7 0.00 0.00 0.00 55 1006.9
20260509170000 16 270 3.2 20.9 0.00 0.00 0.00 54 1007.0
20260509165500 16 311 3.2 20.9 0.00 0.00 0.00 56 1007.2
20260509165000 16 219 9.7 17.7 0.00 0.00 0.00 56 1007.3
20260509164500 16 156 1.6 17.7 0.00 0.00 0.00 53 1007.4
20260509164000 17 243 17.7 20.9 0.00 0.00 0.00 52 1007.5
20260509163000 16 165 8.0 16.1 0.00 0.00 0.00 52 1007.4
20260509161959 16 191 1.6 8.0 0.00 0.00 0.00 50 1007.6
20260509161459 16 197 3.2 9.7 0.00 0.00 0.00 49 1007.7
20260509160959 16 193 1.6 12.9 0.00 0.00 0.00 49 1007.7
20260509160459 16 94 1.6 12.9 0.00 0.00 0.00 49 1007.8
20260509155959 16 65 3.2 8.0 0.00 0.00 0.00 49 1007.7
20260509155459 16 84 1.6 16.1 0.00 0.00 0.00 48 1008.0
20260509154459 17 290 12.9 16.1 0.00 0.00 0.00 44 1008.0
20260509154001 17 94 4.8 11.3 0.00 0.00 0.00 44 1008.1
20260509153459 17 51 3.2 12.9 0.00 0.00 0.00 47 1008.1
20260509152959 16 211 1.6 12.9 0.00 0.00 0.00 46 1008.3
20260509152459 17 56 4.8 12.9 0.00 0.00 0.00 44 1008.4
20260509151959 17 129 4.8 12.9 0.00 0.00 0.00 45 1008.4
20260509150959 16 175 3.2 14.5 0.00 0.00 0.00 47 1008.5
20260509150459 16 103 1.6 14.5 0.00 0.00 0.00 44 1008.7
20260509145958 16 205 3.2 12.9 0.00 0.00 0.00 46 1008.7
20260509145000 16 97 3.2 14.5 0.00 0.00 0.00 46 1008.8
20260509144459 16 266 6.4 14.5 0.00 0.00 0.00 45 1008.9
20260509143958 16 99 12.9 12.9 0.00 0.00 0.00 45 1008.9
20260509143000 16 200 4.8 9.7 0.00 0.00 0.00 46 1009.1
20260509142459 16 205 1.6 12.9 0.00 0.00 0.00 46 1009.2
20260509141958 15 183 1.6 12.9 0.00 0.00 0.00 47 1009.1
20260509141458 15 182 4.8 12.9 0.00 0.00 0.00 47 1009.2
20260509140958 15 229 1.6 12.9 0.00 0.00 0.00 46 1009.2
20260509140458 15 20 3.2 17.7 0.00 0.00 0.00 46 1009.3
20260509135958 15 93 4.8 17.7 0.00 0.00 0.00 46 1009.1
20260509135458 15 92 1.6 11.3 0.00 0.00 0.00 46 1009.3
20260509134958 15 226 1.6 14.5 0.00 0.00 0.00 47 1009.5
20260509134458 15 85 8.0 16.1 0.00 0.00 0.00 46 1009.6
20260509134000 15 222 1.6 16.1 0.00 0.00 0.00 46 1009.3
20260509133458 15 126 9.7 12.9 0.00 0.00 0.00 46 1009.5
20260509132958 14 105 0.0 11.3 0.00 0.00 0.00 46 1009.4
20260509132458 14 215 3.2 12.9 0.00 0.00 0.00 47 1009.4
20260509131958 13 201 3.2 12.9 0.00 0.00 0.00 46 1009.4
20260509130958 13 26 1.6 12.9 0.00 0.00 0.00 48 1009.5
20260509130458 13 221 8.0 9.7 0.00 0.00 0.00 47 1009.6
20260509125958 13 217 0.0 9.7 0.00 0.00 0.00 48 1009.6
20260509125458 12 89 1.6 11.3 0.00 0.00 0.00 50 1009.8
20260509124958 12 181 1.6 11.3 0.00 0.00 0.00 52 1009.6
20260509123958 11 161 0.0 11.3 0.00 0.00 0.00 54 1009.5
20260509123458 11 63 6.4 6.4 0.00 0.00 0.00 55 1009.6
20260509122957 11 63 0.0 6.4 0.00 0.00 0.00 55 1009.8
20260509121957 10 113 1.6 8.0 0.00 0.00 0.00 57 1009.7
20260509120957 9 135 0.0 6.4 0.00 0.00 0.00 64 1009.6
20260509120457 8 78 4.8 6.4 0.00 0.00 0.00 64 1009.7
20260509115959 8 43 1.6 4.8 0.00 0.00 0.00 63 1009.7
20260509115457 8 82 0.0 4.8 0.00 0.00 0.00 66 1009.8
20260509114957 7 174 3.2 3.2 0.00 0.00 0.00 67 1009.8
20260509114457 6 66 1.6 1.6 0.00 0.00 0.00 69 1009.8
20260509113957 6 132 0.0 1.6 0.00 0.00 0.00 71 1009.8
20260509113459 5 78 0.0 1.6 0.00 0.00 0.00 75 1009.7
20260509112957 4 105 0.0 1.6 0.00 0.00 0.00 80 1009.8
20260509111957 2 161 0.0 1.6 0.00 0.00 0.00 86 1009.7
20260509111459 1 122 0.0 1.6 0.00 0.00 0.00 90 1009.6
20260509110957 1 151 0.0 3.2 0.00 0.00 0.00 93 1009.5
20260509110457 0 37 0.0 3.2 0.00 0.00 0.00 95 1009.6
20260509105957 0 120 0.0 0.0 0.00 0.00 0.00 95 1009.5
20260509105457 0 159 0.0 0.0 0.00 0.00 0.00 96 1009.5
20260509104958 0 159 0.0 0.0 0.00 0.00 0.00 96 1009.6
20260509103957 -1 159 0.0 0.0 0.00 0.00 0.00 96 1009.5
20260509103457 -1 159 0.0 0.0 0.00 0.00 0.00 96 1009.5
20260509102957 -1 159 0.0 0.0 0.00 0.00 0.00 96 1009.5
20260509102458 -1 159 0.0 0.0 0.00 0.00 0.00 96 1009.5
20260509101956 -1 159 0.0 0.0 0.00 0.00 0.00 96 1009.6
20260509101456 -1 159 0.0 0.0 0.00 0.00 0.00 96 1009.5
20260509100456 -1 159 0.0 0.0 0.00 0.00 0.00 96 1009.6
20260509095958 -1 159 0.0 0.0 0.00 0.00 0.00 96 1009.6
20260509095456 -1 159 0.0 0.0 0.00 0.00 0.00 96 1009.7
20260509094956 -1 159 0.0 0.0 0.00 0.00 0.00 96 1009.7
20260509094456 -1 159 0.0 0.0 0.00 0.00 0.00 96 1009.7
20260509093956 -1 159 0.0 0.0 0.00 0.00 0.00 95 1009.7
20260509093456 -1 159 0.0 0.0 0.00 0.00 0.00 95 1009.7
20260509092456 -1 159 0.0 0.0 0.00 0.00 0.00 95 1009.8
20260509091956 -1 159 0.0 0.0 0.00 0.00 0.00 95 1009.7
20260509090456 -1 159 0.0 0.0 0.00 0.00 0.00 94 1009.9
20260509090026 -1 159 0.0 0.0 0.00 0.00 0.00 94 1009.8
20260509085456 -1 159 0.0 0.0 0.00 0.00 0.00 94 1009.9
20260509084457 -1 159 0.0 0.0 0.00 0.00 0.00 94 1009.8
20260509083457 -1 159 0.0 0.0 0.00 0.00 0.00 94 1010.1
20260509082956 -1 159 0.0 0.0 0.00 0.00 0.00 94 1010.1
20260509082455 -1 159 0.0 0.0 0.00 0.00 0.00 93 1010.1
20260509081955 -1 159 0.0 0.0 0.00 0.00 0.00 93 1010.1
20260509081455 -1 159 0.0 0.0 0.00 0.00 0.00 93 1010.2
20260509080957 -1 159 0.0 0.0 0.00 0.00 0.00 94 1010.2
20260509080455 -1 159 0.0 0.0 0.00 0.00 0.00 93 1010.3
20260509075955 -1 159 0.0 0.0 0.00 0.00 0.00 93 1010.3
20260509075455 -1 159 0.0 0.0 0.00 0.00 0.00 93 1010.3
20260509074955 -1 159 0.0 0.0 0.00 0.00 0.00 93 1010.3
20260509073955 -1 159 0.0 0.0 0.00 0.00 0.00 92 1010.3
20260509073455 -1 159 0.0 0.0 0.00 0.00 0.00 92 1010.3
20260509072955 -1 159 0.0 0.0 0.00 0.00 0.00 93 1010.3
20260509071955 -1 159 0.0 0.0 0.00 0.00 0.00 92 1010.3
20260509071455 -1 159 0.0 0.0 0.00 0.00 0.00 92 1010.3
20260509070955 -1 159 0.0 0.0 0.00 0.00 0.00 92 1010.4
20260509065955 -1 159 0.0 0.0 0.00 0.00 0.00 91 1010.4
20260509065454 -1 159 0.0 0.0 0.00 0.00 0.00 91 1010.4
20260509064955 -1 159 0.0 0.0 0.00 0.00 0.00 91 1010.4
20260509064455 -1 159 0.0 0.0 0.00 0.00 0.00 91 1010.4
20260509062454 -1 159 0.0 0.0 0.00 0.00 0.00 90 1010.6
20260509061954 -1 159 0.0 0.0 0.00 0.00 0.00 91 1010.6
20260509061454 -1 159 0.0 0.0 0.00 0.00 0.00 90 1010.6
20260509060456 0 159 0.0 0.0 0.00 0.00 0.00 90 1010.7
20260509055954 0 159 0.0 0.0 0.00 0.00 0.00 90 1010.7
20260509055454 0 159 0.0 0.0 0.00 0.00 0.00 90 1010.7
20260509054454 -1 159 0.0 0.0 0.00 0.00 0.00 90 1010.8
20260509053454 0 159 0.0 0.0 0.00 0.00 0.00 89 1010.7
20260509052954 0 159 0.0 0.0 0.00 0.00 0.00 88 1010.8
20260509051954 0 159 0.0 0.0 0.00 0.00 0.00 88 1010.9
20260509051454 0 159 0.0 0.0 0.00 0.00 0.00 88 1010.9
20260509050954 0 159 0.0 0.0 0.00 0.00 0.00 89 1011.0
20260509050454 0 159 0.0 0.0 0.00 0.00 0.00 89 1011.1
20260509045954 0 159 0.0 0.0 0.00 0.00 0.00 89 1011.1
20260509044954 0 159 0.0 0.0 0.00 0.00 0.00 90 1011.1
20260509043954 0 159 0.0 0.0 0.00 0.00 0.00 90 1011.1
20260509043454 0 159 0.0 0.0 0.00 0.00 0.00 90 1011.0
20260509042954 0 159 0.0 0.0 0.00 0.00 0.00 90 1011.0
20260509042453 0 159 0.0 0.0 0.00 0.00 0.00 90 1011.0
20260509041954 0 159 0.0 0.0 0.00 0.00 0.00 90 1010.9
20260509041453 0 159 0.0 0.0 0.00 0.00 0.00 89 1010.9
20260509040954 0 159 0.0 0.0 0.00 0.00 0.00 89 1010.9
20260509040453 0 159 0.0 0.0 0.00 0.00 0.00 89 1010.8
20260509035953 0 159 0.0 0.0 0.00 0.00 0.00 89 1010.8
20260509035453 0 159 0.0 0.0 0.00 0.00 0.00 89 1010.9
20260509034953 0 159 0.0 0.0 0.00 0.00 0.00 88 1010.8
20260509034453 0 159 0.0 0.0 0.00 0.00 0.00 88 1010.8
20260509033953 0 159 0.0 0.0 0.00 0.00 0.00 89 1010.8
20260509032953 0 159 0.0 0.0 0.00 0.00 0.00 90 1010.8
20260509032453 0 159 0.0 0.0 0.00 0.00 0.00 89 1010.9
20260509031453 0 159 0.0 0.0 0.00 0.00 0.00 89 1011.0
20260509030953 0 159 0.0 0.0 0.00 0.00 0.00 88 1011.0
20260509030453 0 159 0.0 0.0 0.00 0.00 0.00 88 1011.1
20260509025954 0 159 0.0 0.0 0.00 0.00 0.00 89 1011.1
20260509025453 0 159 0.0 0.0 0.00 0.00 0.00 88 1011.1
20260509024953 0 159 0.0 0.0 0.00 0.00 0.00 88 1011.1
20260509023954 0 159 0.0 0.0 0.00 0.00 0.00 87 1011.0
20260509023452 0 159 0.0 0.0 0.00 0.00 0.00 86 1011.0
20260509022953 1 159 0.0 0.0 0.00 0.00 0.00 85 1011.0